Regional Weather Roundup
Issued by NWS

Home | Current Version | Previous Version | Text Only | Print | Product List | Glossary On
Versions: 1 2 3 4 5 6 7 8 9 10 11 12 13 14 15 16 17 18 19 20 21 22 23 24 25 26 27 28 29 30 31 32 33 34 35 36 37 38 39 40 41 42 43 44 45 46 47 48 49 50
000
ASUS43 KLSX 272207
RWRMO

WEATHER SUMMARY FOR MISSOURI
NATIONAL WEATHER SERVICE SPRINGFIELD MO
500 PM CDT SUN MAY 27 2018

NOTE: "FAIR" INDICATES FEW OR NO CLOUDS BELOW 12,000 FEET WITH NO
       SIGNIFICANT WEATHER AND/OR OBSTRUCTIONS TO VISIBILITY.
       CURRENT SKY AND/OR WEATHER CONDITIONS ARE NOT AVAILABLE FOR
       CHILLICOTHE AND FARMINGTON.

MOZ001>031-035>038-043-044-053-054-272300-
...NORTHERN AND WESTERN MISSOURI...

CITY           SKY/WX    TMP DP  RH WIND       PRES   REMARKS
KANSAS CTY INT CLOUDY    91  66  43 S6        29.86F HX  93
KANSAS C DTWN  CLOUDY    93  66  40 W8        29.84F HX  96
LEE`S SUMMIT   SUNNY     91  67  44 SW7       29.87F HX  94
ST JOSEPH      CLOUDY    98  61  29 SW8       29.83F HX  98
CHILLICOTHE      N/A     98  63  31 VRB5      29.84F HX 100
KIRKSVILLE     SUNNY     95  70  44 W5        29.86S HX 101

$$
MOZ066>068-077>081-088>096-101>105-272300-
...SOUTHWEST MISSOURI...

CITY           SKY/WX    TMP DP  RH WIND       PRES   REMARKS
SPRINGFIELD    MOSUNNY   90  64  42 VRB5      29.89F HX  91
JOPLIN         CLOUDY    89  68  49 VRB5      29.89F HX  93
BRANSON        PTSUNNY   88  68  51 E3        29.92F HX  91

$$
MOZ032>034-039>042-045>050-055>058-069>072-272300-
...CENTRAL MISSOURI...

CITY           SKY/WX    TMP DP  RH WIND       PRES   REMARKS
COLUMBIA       MOSUNNY   92  68  45 MISG      29.87F HX  96
JEFFERSON CITY MOSUNNY   91  69  48 CALM      29.84F HX  96
ROLLA          SUNNY     90  69  50 CALM      29.90S HX  94
SEDALIA        SUNNY     91  70  49 S8        29.88F HX  96
WHITEMAN AFB   MOSUNNY   91  71  50 SW7       29.83F HX  97
WARRENSBURG    SUNNY     91  64  40 S6        29.86F HX  93
OSAGE BEACH    SUNNY     90  69  50 VRB3      29.89S HX  94

$$
MOZ051-052-059>065-272300-
...EAST CENTRAL MISSOURI...

CITY           SKY/WX    TMP DP  RH WIND       PRES   REMARKS
ST LOUIS INTL  CLOUDY    85  66  53 S10       29.86F
SPIRIT OF STL  CLOUDY    88  70  55 SE8       29.84F HX  93
ST CHARLES     CLOUDY    92  71  50 NW6       29.83F HX  98

$$
MOZ072>076-082>087-097>100-106>115-272300-
...SOUTH CENTRAL AND SOUTHEAST MISSOURI...

CITY           SKY/WX    TMP DP  RH WIND       PRES   REMARKS
CAPE GIRARDEAU FAIR      90  69  50 SE5       29.85S HX  94
FARMINGTON     CLOUDY    85  73  67 S7        29.90S HX  91
POPLAR BLUFF   FAIR      92  68  45 W3        29.84F HX  96
WEST PLAINS    PTSUNNY   88  68  51 SW6       29.91F HX  91

$$



USA.gov is the U.S. government's official web portal to all federal, state and local government web resources and services.